Regional Weather Roundup
Issued by NWS

Home | Current Version | Previous Version | Text Only | Print | Product List | Glossary Off
Versions: 1 2 3 4 5 6 7 8 9 10 11 12 13 14 15 16 17 18 19 20 21 22 23 24 25 26 27 28 29 30 31 32 33 34 35 36 37 38 39 40 41 42 43 44 45 46 47 48 49 50

000
ASUS43 KLOT 300008
RWRIL

ILLINOIS REGIONAL WEATHER ROUNDUP
NATIONAL WEATHER SERVICE CHICAGO/ROMEOVILLE IL
700 PM CDT SUN MAY 29 2016

NOTE: "FAIR" INDICATES FEW OR NO CLOUDS BELOW 12,000 FEET WITH NO
SIGNIFICANT WEATHER AND/OR OBSTRUCTIONS TO VISIBILITY.

* THESE STATIONS ARE NOT UNDER NWS QUALITY CONTROL. THEY ALSO MAY NOT
  REPORT WEATHER SUCH AS PRECIPITATION OR FOG.

ILZ001-002-007-009-015-016-024-300100-
NORTHWEST ILLINOIS

CITY           SKY/WX    TMP DP  RH WIND       PRES   REMARKS
MOLINE         SUNNY     81  57  43 W7        29.99F HX  81
6HR MIN TEMP:  78; 6HR MAX TEMP:  83;

STERLING*      MOSUNNY   77  58  51 W15       30.00S
SAVANNA*       SUNNY     79  56  45 W7        29.98F HX  80
$$

ILZ003-004-008-010-011-017-018-300100-
NORTH CENTRAL ILLINOIS

CITY           SKY/WX    TMP DP  RH WIND       PRES   REMARKS
ROCKFORD       MOSUNNY   77  57  50 W8        30.00F
6HR MIN TEMP:  75; 6HR MAX TEMP:  80;

FREEPORT*      MOSUNNY   76  57  52 W9        30.00F
ROCHELLE*      MOSUNNY   76  58  51 W10       30.00F
DE KALB*       MOSUNNY   76  58  52 W10G17    30.00F
$$

ILZ005-006-012>014-019>023-300100-
NORTHEAST ILLINOIS

CITY           SKY/WX    TMP DP  RH WIND       PRES   REMARKS
CHICAGO-OHARE  MOSUNNY   78  56  46 W12G23    29.97S
6HR MIN TEMP:  75; 6HR MAX TEMP:  79;

CHICAGO-MIDWAY MOSUNNY   80  56  43 W12       29.98S HX  80
6HR MIN TEMP:  78; 6HR MAX TEMP:  81;

AURORA         SUNNY     78  59  51 W15       30.00S
6HR MIN TEMP:  75; 6HR MAX TEMP:  80;

LANSING*       SUNNY     79  54  41 W10G17    29.99S
JOLIET*        SUNNY     81  56  42 W7        29.99S HX  81
WAUKEGAN       SUNNY     77  56  48 VRB7      29.96S
6HR MIN TEMP:  74; 6HR MAX TEMP:  80;

DUPAGE AIRPORT SUNNY     77  57  50 W10       29.98F
6HR MIN TEMP:  74; 6HR MAX TEMP:  79;

KANKAKEE*      SUNNY     81  54  39 NW9       30.00S HX  80
WHEELING       SUNNY     78  55  44 W13       29.98S
6HR MIN TEMP:  75; 6HR MAX TEMP:  80;

MORRIS*        SUNNY     80  54  40 NW14      29.98S HX  80
ROMEOVILLE*    SUNNY     80  52  37 W10       30.00S HX  80
NORTHERLY ISL    N/A     79  53  40 W10         N/A
NORTHERLY ISL    N/A     79  53  40 W10         N/A
$$

LMZ740>746-300100-
SOUTHERN LAKE MICHIGAN

STATION/POSITION SKY/WX   TEMP    WIND        PRES    VSBY  WAVE
                          AIR SEA DIR/SP/G                  HT/PER
                          (F)     (DEG/KT/KT) (MB)    (MI)  (FT/S)
SOUTHERN BUOY              58 51  190/ 10/ 12 1014.0          1
WILMETTE HARBOR            67 54  290/  8/ 14   N/A           1/ 2
HARRISON CRIB              78     260/ 16/ 18   N/A
BURNHAM HARBOR             78     270/  8/ 14   N/A
CALUMET HARBOR                                1014.7F
BURNS HARBOR               69     280/  7/  8 1015.9F
MICHIGAN CITY              71     250/ 13/ 15   N/A
MICHIGAN CITY 6N           65 59  240/  4/  6   N/A           1/ 3
ST. JOSEPH                 65 62  210/  4/  6   N/A           1/ 3
$$

ILZ025>027-034>036-040-047-049-050-058-095>099-300100-
WEST-CENTRAL ILLINOIS

CITY           SKY/WX    TMP DP  RH WIND       PRES   REMARKS
QUINCY         SUNNY     81  59  47 W6        30.03F HX  81
GALESBURG*     MOSUNNY   79  56  44 W9        30.02F HX  80
MACOMB*        SUNNY     81  53  38 W7        30.05S HX  80
JACKSONVILLE*  SUNNY     83  53  36 W9        30.03S HX  81
PITTSFIELD*    MOSUNNY   82  61  49 W5        30.05S HX  82
$$

ILZ028>032-037-038-041>044-048-051>054-059>061-300100-
CENTRAL ILLINOIS

CITY           SKY/WX    TMP DP  RH WIND       PRES   REMARKS
PONTIAC        MOSUNNY   82  56  40 W15       30.01S HX  82
BLOOMINGTON    SUNNY     80  60  50 W12       30.04F HX  81
DECATUR        SUNNY     81  55  40 NW9       30.02F HX  81
PEORIA         MOSUNNY   81  54  39 NW9       30.02F HX  81
6HR MIN TEMP:  79; 6HR MAX TEMP:  83;

LACON*         MOSUNNY   81  54  39 W9        30.00S HX  80
LINCOLN*       SUNNY     82  58  44 CALM      30.03S HX  81
SPRINGFIELD    SUNNY     83  56  39 NW7       30.03F HX  82
6HR MIN TEMP:  83; 6HR MAX TEMP:  87;

TAYLORVILLE    SUNNY     82  55  40 W8        30.03S HX  81
6HR MIN TEMP:  81; 6HR MAX TEMP:  85;

$$

ILZ033-039-045-046-055>057-062-063-300100-
EAST-CENTRAL ILLINOIS

CITY           SKY/WX    TMP DP  RH WIND       PRES   REMARKS
CHAMPAIGN      SUNNY     81  54  39 NW16      30.02F HX  81
RANTOUL*       SUNNY     82  58  45 W12       30.02S HX  82
MATTOON        SUNNY     80  53  39 NW10      30.01F HX  80
PARIS*         CLOUDY    82  55  39 W6        30.02S HX  81
$$

ILZ079-100>102-300100-
SOUTHWEST ILLINOIS

CITY           SKY/WX    TMP DP  RH WIND       PRES   REMARKS
ALTON          MOSUNNY   82  55  39 NW12      30.04S HX  82
BELLEVILLE     CLOUDY    82  60  47 NW6       30.03R HX  82
CAHOKIA*       PTSUNNY   82  56  40 NW8       30.03S HX  82
SPARTA*        CLOUDY    80  64  57 CALM      30.06S HX  81
$$

ILZ064>066-069>071-074>076-080>082-084>086-088>090-092>094-300100-
SOUTH-CENTRAL ILLINOIS

CITY           SKY/WX    TMP DP  RH WIND       PRES   REMARKS
CARBONDALE     SUNNY     81  62  52 N6        30.05S HX  82
6HR MIN TEMP:  81; 6HR MAX TEMP:  86;

CAIRO*         SUNNY     82  65  56 NW3       30.04S HX  84
EFFINGHAM*     CLOUDY    82  62  50 W7        30.05R HX  83
MARION         SUNNY     82  61  47 NW3       30.05F HX  83
MT. VERNON     CLOUDY    77  66  69 CALM      30.05S
CENTRALIA*     CLOUDY    80  67  65 SW3       30.04R HX  83
SALEM*         CLOUDY    82  63  52 CALM      30.04S HX  83
METROPOLIS*    SUNNY     83  64  52 NW5       30.04S HX  85
$$

ILZ067-068-072-073-078-083-087-091-300100-
SOUTHEAST ILLINOIS

CITY           SKY/WX    TMP DP  RH WIND       PRES   REMARKS
LAWRENCEVILLE  MOSUNNY   80  60  50 W8        30.03S HX  81
FLORA*         SUNNY     80  65  61 SW3       30.04S HX  82
FAIRFIELD*     MOSUNNY   78  64  61 CALM      30.04R HX  80
HARRISBURG*    SUNNY     81  63  53 NW3       30.04S HX  82
ROBINSON*      MOSUNNY   79  61  53 W7        30.03S HX  80
CARMI*         SUNNY     82  60  47 NW7       30.03S HX  82
$$

ABBREVIATIONS USED IN REMARKS
   TC - TEMPERATURE IN CELSIUS
  WCI - WIND CHILL INDEX
   HX - HEAT INDEX
  VSB - VISIBILITY
$$




USA.gov is the U.S. government's official web portal to all federal, state and local government web resources and services.